Location: Easter Hill Village
(37.9235°N, 122.3444°W)
Time: 21:05:37
(UTC+00:00)

Unknown - Pass Details

Date: 16 September 2019
Orbit: 549 x 551 km, 53.0° (Epoch: 12 October)

Event Time Altitude Azimuth Distance (km) Brightness Sun altitude
Exits shadow 12:08:38 57° 292° (WNW) 650 3.6 -20.7°
Maximum altitude 12:09:02 60° 321° (NW) 629 3.7 -20.6°
Drops below altitude 10° 12:13:08 10° 42° (NE) 1,824 7.2 -19.8°
Sets 12:15:24 0° 46° (NE) 2,721 8.3 -19.4°
